FW0958 Weather Reports


Display with metric or nautical units.
time (UTC)temp
F
wind
direction
speed
MPH
gust
MPH
rain 1hr
in
rain 24hr
in
rain mn
in
humidity
%
barometer
mb
20190526124958 58 173 0.0 3.0 0.00 0.00 0.00 82 1011.3
20190526124457 58 172 0.0 3.0 0.00 0.00 0.00 82 1011.4
20190526123956 58 152 0.0 1.0 0.00 0.00 0.00 82 1011.3
20190526123458 58 152 0.0 1.0 0.00 0.00 0.00 82 1011.3
20190526122955 58 152 0.0 0.0 0.00 0.00 0.00 82 1011.3
20190526122454 58 152 0.0 1.0 0.00 0.00 0.00 82 1011.2
20190526121952 58 152 0.0 1.0 0.00 0.00 0.00 82 1011.2
20190526121454 58 152 0.0 1.0 0.00 0.00 0.00 82 1011.2
20190526120952 58 152 0.0 0.0 0.00 0.00 0.00 82 1011.2
20190526120451 58 152 0.0 1.0 0.00 0.00 0.00 82 1011.1
20190526115951 58 152 0.0 3.0 0.00 0.00 0.00 82 1011.0
20190526115449 58 152 0.0 3.0 0.00 0.00 0.00 82 1011.1
20190526114948 58 152 0.0 3.0 0.00 0.00 0.00 83 1011.2
20190526114448 58 152 0.0 1.0 0.00 0.00 0.00 83 1011.1
20190526113948 58 152 0.0 1.0 0.00 0.00 0.00 84 1011.2
20190526113449 58 152 0.0 1.0 0.00 0.00 0.00 84 1011.2
20190526112949 58 152 0.0 1.0 0.00 0.00 0.00 83 1011.1
20190526112448 58 152 0.0 4.0 0.00 0.00 0.00 84 1011.1
20190526111948 58 152 0.0 5.0 0.00 0.00 0.00 83 1011.1
20190526111446 58 152 0.0 5.0 0.00 0.00 0.00 83 1011.1
20190526110947 58 168 0.0 2.0 0.00 0.00 0.00 83 1011.1
20190526110447 58 168 0.0 2.0 0.00 0.00 0.00 83 1011.2
20190526105947 58 168 0.0 3.0 0.00 0.00 0.00 83 1011.3
20190526105446 58 168 0.0 3.0 0.00 0.00 0.00 83 1011.3
20190526104946 58 168 0.0 3.0 0.00 0.00 0.00 83 1011.2
20190526104446 58 168 0.0 2.0 0.00 0.00 0.00 83 1011.3
20190526103947 58 168 0.0 1.0 0.00 0.00 0.00 82 1011.3
20190526103446 58 168 0.0 1.0 0.00 0.00 0.00 82 1011.3
20190526102947 58 168 0.0 1.0 0.00 0.00 0.00 82 1011.4
20190526102444 58 168 0.0 1.0 0.00 0.00 0.00 82 1011.3
20190526101945 58 168 0.0 1.0 0.00 0.00 0.00 82 1011.4
20190526101444 58 168 0.0 1.0 0.00 0.00 0.00 82 1011.3
20190526100945 58 168 0.0 1.0 0.00 0.00 0.00 82 1011.3
20190526100444 58 168 0.0 2.0 0.00 0.00 0.00 82 1011.3
20190526095946 58 168 0.0 2.0 0.00 0.00 0.00 82 1011.3
20190526095443 58 168 0.0 2.0 0.00 0.00 0.00 82 1011.3
20190526094946 58 168 0.0 2.0 0.00 0.00 0.00 82 1011.3
20190526094444 58 168 0.0 1.0 0.00 0.00 0.00 82 1011.3
20190526093944 58 168 0.0 2.0 0.00 0.00 0.00 82 1011.4
20190526093444 58 168 0.0 4.0 0.00 0.00 0.00 82 1011.3
20190526092942 58 168 0.0 4.0 0.00 0.00 0.00 82 1011.4
20190526092442 58 243 0.0 3.0 0.00 0.00 0.00 83 1011.5
20190526091942 58 277 0.0 1.0 0.00 0.00 0.00 83 1011.4
20190526091443 58 277 0.0 1.0 0.00 0.00 0.00 83 1011.5
20190526090943 58 277 0.0 1.0 0.00 0.00 0.00 83 1011.6
20190526090442 58 277 0.0 1.0 0.00 0.00 0.00 84 1011.5
20190526085943 58 277 0.0 2.0 0.00 0.00 0.00 84 1011.5
20190526085442 58 277 0.0 2.0 0.00 0.00 0.00 84 1011.6
20190526084943 58 277 0.0 1.0 0.00 0.00 0.00 84 1011.6
20190526084443 58 277 0.0 1.0 0.00 0.00 0.00 84 1011.5
20190526083940 58 277 0.0 1.0 0.00 0.00 0.00 84 1011.6
20190526083439 58 277 0.0 1.0 0.00 0.00 0.00 83 1011.7
20190526082940 58 277 0.0 0.0 0.00 0.00 0.00 83 1011.7
20190526082441 58 277 0.0 0.0 0.00 0.00 0.00 83 1011.7
20190526081941 58 277 0.0 0.0 0.00 0.00 0.00 83 1011.7
20190526081441 58 277 0.0 0.0 0.00 0.00 0.00 83 1011.7
20190526080941 58 277 0.0 0.0 0.00 0.00 0.00 83 1011.8
20190526080441 58 277 0.0 0.0 0.00 0.00 0.00 83 1011.8
20190526075939 58 277 0.0 0.0 0.00 0.00 0.00 84 1011.8
20190526075440 58 277 0.0 0.0 0.00 0.00 0.00 83 1011.9
20190526074940 58 277 0.0 0.0 0.00 0.00 0.00 83 1011.9
20190526074438 57 277 0.0 0.0 0.00 0.00 0.00 84 1011.8
20190526073937 57 277 0.0 0.0 0.00 0.00 0.00 84 1012.0
20190526073437 57 277 0.0 0.0 0.00 0.00 0.00 85 1011.9
20190526072936 57 277 0.0 0.0 0.00 0.00 0.00 85 1011.9
20190526072437 57 277 0.0 0.0 0.00 0.00 0.00 84 1012.0
20190526071936 57 277 0.0 0.0 0.00 0.00 0.00 84 1011.9
20190526071436 57 277 0.0 0.0 0.00 0.00 0.00 85 1012.0
20190526070935 57 277 0.0 0.0 0.00 0.00 0.00 85 1012.0
20190526070433 57 277 0.0 0.0 0.00 0.00 0.00 85 1012.0
20190526065933 56 277 0.0 0.0 0.00 0.00 0.00 85 1012.1
20190526065431 56 277 0.0 0.0 0.00 0.00 0.00 85 1012.0
20190526064932 56 277 0.0 0.0 0.00 0.00 0.00 85 1012.0
20190526064431 56 277 0.0 2.0 0.00 0.00 0.00 85 1012.1
20190526063931 57 277 0.0 2.0 0.00 0.00 0.00 84 1012.0
20190526063431 57 277 0.0 2.0 0.00 0.00 0.00 84 1012.0
20190526062931 57 277 0.0 1.0 0.00 0.00 0.00 84 1011.9
20190526062431 57 277 0.0 1.0 0.00 0.00 0.00 84 1011.9
20190526061931 57 277 0.0 0.0 0.00 0.00 0.00 83 1011.9
20190526061430 58 277 0.0 0.0 0.00 0.00 0.00 83 1011.8
20190526060929 58 277 0.0 0.0 0.00 0.00 0.00 83 1012.1
20190526060429 58 277 0.0 1.0 0.00 0.00 0.00 83 1012.0
20190526055929 58 277 0.0 1.0 0.00 0.00 0.00 83 1012.1
20190526055430 58 277 0.0 1.0 0.00 0.00 0.00 83 1012.0
20190526054930 58 277 0.0 1.0 0.00 0.00 0.00 83 1012.1
20190526054428 58 277 0.0 0.0 0.00 0.00 0.00 82 1012.1
20190526053929 58 277 0.0 0.0 0.00 0.00 0.00 83 1012.0
20190526053428 58 277 0.0 0.0 0.00 0.00 0.00 83 1012.1
20190526052926 58 277 0.0 0.0 0.00 0.00 0.00 83 1012.0
20190526052428 58 277 0.0 0.0 0.00 0.00 0.00 82 1012.0
20190526051927 58 277 0.0 0.0 0.00 0.00 0.00 82 1012.0
20190526051428 58 277 0.0 0.0 0.00 0.00 0.00 82 1012.0
20190526050927 58 277 0.0 1.0 0.00 0.00 0.00 82 1012.0
20190526050426 58 277 0.0 1.0 0.00 0.00 0.00 82 1012.1
20190526045926 58 277 0.0 1.0 0.00 0.00 0.00 82 1012.1
20190526045427 58 277 0.0 0.0 0.00 0.00 0.00 82 1012.0
20190526044926 58 277 0.0 0.0 0.00 0.00 0.00 82 1012.0
20190526044426 58 277 0.0 0.0 0.00 0.00 0.00 82 1012.0
20190526043925 58 277 0.0 0.0 0.00 0.00 0.00 82 1012.1
20190526043424 58 277 0.0 0.0 0.00 0.00 0.00 82 1012.1
20190526042925 58 277 0.0 0.0 0.00 0.00 0.00 82 1012.0
20190526042425 58 277 0.0 0.0 0.00 0.00 0.00 82 1012.0
20190526041927 58 277 0.0 0.0 0.00 0.00 0.00 82 1012.0
20190526041423 58 277 0.0 2.0 0.00 0.00 0.00 81 1012.1
20190526040922 58 277 1.0 3.0 0.00 0.00 0.00 81 1011.9
20190526040421 58 277 1.0 3.0 0.00 0.00 0.00 81 1011.8
20190526035922 58 272 0.0 2.0 0.00 0.00 0.00 80 1011.9
20190526035421 58 271 0.0 1.0 0.00 0.00 0.00 80 1011.9
20190526034919 58 271 0.0 1.0 0.00 0.00 0.00 80 1012.0
20190526034420 59 271 0.0 1.0 0.00 0.00 0.00 79 1012.0
20190526033917 59 271 1.0 3.0 0.00 0.00 0.00 79 1012.0
20190526033416 59 271 1.0 3.0 0.00 0.00 0.00 79 1011.8
20190526032917 59 269 1.0 3.0 0.00 0.00 0.00 79 1011.9
20190526032417 59 241 0.0 3.0 0.00 0.00 0.00 78 1012.0
20190526031918 59 241 0.0 3.0 0.00 0.00 0.00 78 1012.0
20190526031417 59 246 1.0 3.0 0.00 0.00 0.00 77 1011.9
20190526030918 60 267 1.0 3.0 0.00 0.00 0.00 77 1011.9
20190526030418 60 277 1.0 3.0 0.00 0.00 0.00 76 1011.8
20190526025916 60 277 0.0 3.0 0.00 0.00 0.00 75 1011.8
20190526025417 60 274 1.0 4.0 0.00 0.00 0.00 74 1011.7
20190526024916 60 274 1.0 4.0 0.00 0.00 0.00 74 1011.7
20190526024417 60 278 1.0 3.0 0.00 0.00 0.00 73 1011.5
20190526023917 61 255 1.0 5.0 0.00 0.00 0.00 72 1011.5
20190526023417 61 260 2.0 7.0 0.00 0.00 0.00 72 1011.5
20190526022916 61 287 2.0 7.0 0.00 0.00 0.00 71 1011.4
20190526022417 61 259 3.0 9.0 0.00 0.00 0.00 71 1011.3
20190526021917 61 294 2.0 9.0 0.00 0.00 0.00 71 1011.3
20190526021416 62 255 2.0 7.0 0.00 0.00 0.00 70 1011.3
20190526020918 62 288 2.0 7.0 0.00 0.00 0.00 70 1011.1
20190526020415 62 244 2.0 7.0 0.00 0.00 0.00 69 1011.2
20190526015915 63 223 3.0 9.0 0.00 0.00 0.00 69 1011.1
20190526015415 63 269 3.0 9.0 0.00 0.00 0.00 68 1011.2
20190526014913 64 264 3.0 12.0 0.00 0.00 0.00 67 1011.2
20190526014414 64 233 4.0 12.0 0.00 0.00 0.00 65 1011.1
20190526013910 65 294 3.0 11.0 0.00 0.00 0.00 64 1011.0
20190526013412 65 258 3.0 11.0 0.00 0.00 0.00 63 1010.9
20190526012912 65 254 3.0 8.0 0.00 0.00 0.00 62 1011.0
20190526012411 66 304 3.0 8.0 0.00 0.00 0.00 62 1010.8
20190526011912 66 302 3.0 8.0 0.00 0.00 0.00 61 1010.9
20190526011412 67 231 3.0 8.0 0.00 0.00 0.00 60 1010.9
20190526010910 67 264 3.0 8.0 0.00 0.00 0.00 60 1010.8
20190526010410 67 244 2.0 8.0 0.00 0.00 0.00 60 1010.8
20190526005909 68 234 3.0 8.0 0.00 0.00 0.00 59 1010.8
20190526005410 67 237 3.0 8.0 0.00 0.00 0.00 60 1010.8
20190526004908 68 292 3.0 9.0 0.00 0.00 0.00 60 1010.7
20190526004409 68 255 3.0 9.0 0.00 0.00 0.00 60 1010.7
20190526003909 68 253 3.0 9.0 0.00 0.00 0.00 59 1010.8
20190526003409 69 251 2.0 7.0 0.00 0.00 0.00 59 1010.8
20190526002910 68 269 3.0 8.0 0.00 0.00 0.00 59 1010.6
20190526002408 69 217 3.0 10.0 0.00 0.00 0.00 58 1010.6
20190526001909 69 166 4.0 11.0 0.00 0.00 0.00 59 1010.7
20190526001409 69 319 3.0 11.0 0.00 0.00 0.00 58 1010.7
20190526000907 69 225 3.0 8.0 0.00 0.00 0.00 59 1010.7
20190526000408 69 246 3.0 10.0 0.00 0.00 0.00 58 1010.7
20190525235906 69 261 3.0 10.0 0.00 0.00 0.00 58 1010.8
20190525235408 69 239 3.0 11.0 0.00 0.00 0.00 57 1010.9
20190525234907 70 222 3.0 11.0 0.00 0.00 0.00 58 1010.8
20190525234406 69 271 3.0 9.0 0.00 0.00 0.00 58 1010.9
20190525233907 70 237 3.0 8.0 0.00 0.00 0.00 58 1010.9
20190525233406 70 247 3.0 9.0 0.00 0.00 0.00 58 1010.9
20190525232906 70 256 3.0 9.0 0.00 0.00 0.00 56 1011.0
20190525232406 70 275 3.0 9.0 0.00 0.00 0.00 56 1011.0
20190525231904 71 245 3.0 9.0 0.00 0.00 0.00 57 1011.0
20190525231405 69 297 2.0 9.0 0.00 0.00 0.00 57 1011.1
20190525230903 70 251 2.0 9.0 0.00 0.00 0.00 59 1011.2
20190525230405 69 244 3.0 9.0 0.00 0.00 0.00 58 1011.2
20190525225903 70 242 3.0 8.0 0.00 0.00 0.00 58 1011.3
20190525225405 69 225 4.0 11.0 0.00 0.00 0.00 60 1011.2
20190525224904 69 318 4.0 14.0 0.00 0.00 0.00 57 1011.4
20190525224405 70 271 4.0 14.0 0.00 0.00 0.00 57 1011.5
20190525223904 70 214 3.0 10.0 0.00 0.00 0.00 59 1011.3
20190525223405 69 173 3.0 10.0 0.00 0.00 0.00 59 1011.3
20190525222903 69 222 2.0 9.0 0.00 0.00 0.00 59 1011.5
20190525222403 69 246 3.0 11.0 0.00 0.00 0.00 60 1011.5
20190525221902 68 260 5.0 11.0 0.00 0.00 0.00 61 1011.6
20190525221401 68 265 6.0 14.0 0.00 0.00 0.00 61 1011.6
20190525220901 68 283 5.0 14.0 0.00 0.00 0.00 62 1011.7
20190525220400 69 297 3.0 10.0 0.00 0.00 0.00 60 1011.8
20190525215900 69 227 4.0 12.0 0.00 0.00 0.00 60 1011.7
20190525215401 69 158 3.0 12.0 0.00 0.00 0.00 58 1011.7
20190525214900 71 264 3.0 8.0 0.00 0.00 0.00 59 1011.7
20190525214401 70 257 3.0 11.0 0.00 0.00 0.00 60 1011.9
20190525213857 71 314 3.0 11.0 0.00 0.00 0.00 57 1011.9
20190525213357 71 252 2.0 6.0 0.00 0.00 0.00 60 1011.8
20190525212857 69 245 3.0 9.0 0.00 0.00 0.00 62 1011.9
20190525212357 69 175 4.0 9.0 0.00 0.00 0.00 63 1011.9
20190525211859 69 155 3.0 9.0 0.00 0.00 0.00 61 1011.9
20190525211358 69 182 3.0 7.0 0.00 0.00 0.00 61 1012.0
20190525210858 69 179 3.0 10.0 0.00 0.00 0.00 62 1011.9
20190525210358 69 239 4.0 10.0 0.00 0.00 0.00 60 1012.1
20190525205901 70 234 3.0 7.0 0.00 0.00 0.00 62 1012.1
20190525205358 69 167 2.0 7.0 0.00 0.00 0.00 63 1012.1
20190525204857 69 246 2.0 6.0 0.00 0.00 0.00 63 1012.1
20190525204358 68 143 2.0 8.0 0.00 0.00 0.00 65 1012.3
20190525203858 67 242 3.0 9.0 0.00 0.00 0.00 67 1012.3
20190525203357 67 244 4.0 10.0 0.00 0.00 0.00 66 1012.3
20190525202857 67 225 4.0 10.0 0.00 0.00 0.00 67 1012.2
20190525202358 66 272 3.0 7.0 0.00 0.00 0.00 68 1012.4
20190525201858 66 306 3.0 11.0 0.00 0.00 0.00 67 1012.5
20190525201357 66 279 3.0 11.0 0.00 0.00 0.00 67 1012.5
20190525200859 66 250 3.0 7.0 0.00 0.00 0.00 67 1012.5
20190525200358 67 233 3.0 9.0 0.00 0.00 0.00 66 1012.6
20190525195857 68 192 3.0 10.0 0.00 0.00 0.00 66 1012.5
20190525195358 67 260 3.0 10.0 0.00 0.00 0.00 67 1012.4
20190525194857 67 244 3.0 8.0 0.00 0.00 0.00 66 1012.4
20190525194357 67 212 3.0 8.0 0.00 0.00 0.00 67 1012.5
20190525193857 66 235 3.0 9.0 0.00 0.00 0.00 67 1012.6
20190525193357 66 213 4.0 10.0 0.00 0.00 0.00 67 1012.7
20190525192857 66 275 3.0 10.0 0.00 0.00 0.00 67 1012.7
20190525192357 66 240 3.0 8.0 0.00 0.00 0.00 67 1012.8
20190525191857 66 248 2.0 7.0 0.00 0.00 0.00 69 1012.6
20190525191358 66 247 3.0 9.0 0.00 0.00 0.00 69 1012.6
20190525190857 65 266 3.0 9.0 0.00 0.00 0.00 69 1012.6
20190525190359 65 243 3.0 9.0 0.00 0.00 0.00 69 1012.8
20190525185859 65 238 3.0 11.0 0.00 0.00 0.00 69 1012.8
20190525185357 65 277 3.0 11.0 0.00 0.00 0.00 69 1012.8
20190525184858 65 262 3.0 9.0 0.00 0.00 0.00 69 1013.0
20190525184357 65 218 3.0 9.0 0.00 0.00 0.00 70 1013.0
20190525183859 66 239 3.0 11.0 0.00 0.00 0.00 68 1013.0
20190525183356 65 213 4.0 11.0 0.00 0.00 0.00 69 1013.1
20190525182854 66 250 4.0 11.0 0.00 0.00 0.00 69 1013.0
20190525182354 66 295 3.0 10.0 0.00 0.00 0.00 69 1013.0
20190525181855 66 232 2.0 9.0 0.00 0.00 0.00 69 1012.9
20190525181353 66 205 3.0 10.0 0.00 0.00 0.00 69 1012.8
20190525180854 66 248 3.0 10.0 0.00 0.00 0.00 69 1012.9
20190525180353 67 231 2.0 7.0 0.00 0.00 0.00 68 1012.8
20190525175855 66 225 2.0 7.0 0.00 0.00 0.00 68 1012.9
20190525175353 66 240 2.0 7.0 0.00 0.00 0.00 69 1012.8
20190525174853 65 233 2.0 7.0 0.00 0.00 0.00 67 1012.8
20190525174354 66 240 3.0 10.0 0.00 0.00 0.00 67 1012.8
20190525173851 66 211 3.0 10.0 0.00 0.00 0.00 67 1012.8
20190525173352 67 283 2.0 9.0 0.00 0.00 0.00 65 1012.6
20190525172851 67 213 2.0 6.0 0.00 0.00 0.00 65 1012.6
20190525172353 66 323 2.0 7.0 0.00 0.00 0.00 66 1012.7
20190525171853 66 256 3.0 8.0 0.00 0.00 0.00 65 1012.6
20190525171352 66 200 2.0 8.0 0.00 0.00 0.00 68 1012.6
20190525170852 65 300 2.0 5.0 0.00 0.00 0.00 68 1012.6
20190525170351 66 272 2.0 7.0 0.00 0.00 0.00 66 1012.6
20190525165851 66 177 2.0 7.0 0.00 0.00 0.00 65 1012.5
20190525165352 67 340 2.0 7.0 0.00 0.00 0.00 64 1012.4
20190525164849 66 132 2.0 6.0 0.00 0.00 0.00 66 1012.5
20190525164350 65 159 2.0 6.0 0.00 0.00 0.00 68 1012.6
20190525163849 64 140 1.0 4.0 0.00 0.00 0.00 68 1012.6
20190525163349 65 232 1.0 4.0 0.00 0.00 0.00 68 1012.5
20190525162850 65 208 1.0 4.0 0.00 0.00 0.00 70 1012.5
20190525162349 63 146 1.0 4.0 0.00 0.00 0.00 72 1012.6
20190525161849 63 177 1.0 4.0 0.00 0.00 0.00 71 1012.5
20190525161350 64 239 1.0 7.0 0.00 0.00 0.00 71 1012.6
20190525160849 63 190 1.0 7.0 0.00 0.00 0.00 72 1012.5
20190525160350 62 231 1.0 4.0 0.00 0.00 0.00 74 1012.5
20190525155846 62 241 1.0 4.0 0.00 0.00 0.00 74 1012.6
20190525155347 62 279 1.0 3.0 0.00 0.00 0.00 75 1012.6
20190525154847 61 228 1.0 4.0 0.00 0.00 0.00 76 1012.5
20190525154347 60 243 2.0 4.0 0.00 0.00 0.00 78 1012.6
20190525153848 60 350 2.0 7.0 0.00 0.00 0.00 77 1012.5
20190525153347 61 300 1.0 7.0 0.00 0.00 0.00 77 1012.5
20190525152847 60 291 1.0 4.0 0.00 0.00 0.00 78 1012.4
20190525152347 60 28 1.0 4.0 0.00 0.00 0.00 79 1012.3
20190525151847 60 248 1.0 4.0 0.00 0.00 0.00 79 1012.5
20190525151348 59 293 0.0 2.0 0.00 0.00 0.00 80 1012.4
20190525150846 59 293 0.0 2.0 0.00 0.00 0.00 80 1012.4
20190525150343 58 290 0.0 2.0 0.00 0.00 0.00 81 1012.3
20190525145843 58 290 0.0 2.0 0.00 0.00 0.00 82 1012.2
20190525145342 57 289 0.0 2.0 0.00 0.00 0.00 83 1012.3
20190525144844 57 288 0.0 2.0 0.00 0.00 0.00 84 1012.3
20190525144344 56 288 0.0 1.0 0.00 0.00 0.00 85 1012.4
20190525143843 56 288 0.0 1.0 0.00 0.00 0.00 86 1012.4
20190525143343 56 288 0.0 1.0 0.00 0.00 0.00 87 1012.5
20190525142842 55 288 0.0 1.0 0.00 0.00 0.00 87 1012.5
20190525142343 54 288 0.0 2.0 0.00 0.00 0.00 88 1012.5
20190525141840 54 289 0.0 2.0 0.00 0.00 0.00 88 1012.5
20190525141342 53 289 0.0 1.0 0.00 0.00 0.00 89 1012.3
20190525140840 53 288 0.0 1.0 0.00 0.00 0.00 89 1012.3
20190525140341 53 288 0.0 1.0 0.00 0.00 0.00 89 1012.3
20190525135841 53 288 0.0 0.0 0.00 0.00 0.00 91 1012.2
20190525135342 52 288 0.0 0.0 0.00 0.00 0.00 91 1012.3
20190525134840 52 288 0.0 0.0 0.00 0.00 0.00 91 1012.1
20190525134342 51 288 0.0 0.0 0.00 0.00 0.00 92 1012.1
20190525133842 51 288 0.0 0.0 0.00 0.00 0.00 92 1012.1
20190525133341 51 288 0.0 0.0 0.00 0.00 0.00 92 1012.1
20190525132842 50 288 0.0 0.0 0.00 0.00 0.00 92 1011.9
20190525132341 50 288 0.0 0.0 0.00 0.00 0.00 92 1011.8
20190525131840 50 288 0.0 0.0 0.00 0.00 0.00 92 1011.8
20190525131342 49 289 0.0 0.0 0.00 0.00 0.00 92 1011.6
20190525130841 49 289 0.0 0.0 0.00 0.00 0.00 92 1011.7
20190525130342 49 289 0.0 0.0 0.00 0.00 0.00 91 1011.7
20190525125841 49 289 0.0 1.0 0.00 0.00 0.00 92 1011.7
20190525125342 49 289 0.0 1.0 0.00 0.00 0.00 91 1011.7